Weather in Rosilna

Ukraine / Ivano-Frankovsk District     48°46′43″N   24°22′44″E
temp.,
°C
wind,
m/s
gust,
m/s
humid.,
%
clouds,
%
prec.,
mm/h
press.,
hPa
HPBL,
m
29 july, thu
thu2900:00+19ssw23700 0.1 101226
03:00+20sw45630 0.1 101268
06:00+19sw47630 0.0 101087
09:00+21n34742 0.0 1012309
12:00+24n43685 0.1 1012728
15:00+23nnw5681100 5.3 1013509
18:00+23nw467728 1.9 1013887
21:00+19wnw24900 2.6 101360
30 july, fri
fri3000:00+17sw22920 0.0 101426
03:00+17sw22900 0.0 101419
06:00+15sw22860 0.0 101414
09:00+21s11700 0.0 1014177
12:00+25n13490 0.0 10131097
15:00+27nne32480 0.0 10121289
18:00+26e33613 0.0 1011636
21:00+20sse22783 0.0 101124
31 july, sat
sat3100:00+18ssw22790 0.0 101121
03:00+18ssw326827 0.0 101026
06:00+18sw22605 0.0 101117
09:00+23se11590 0.0 1010129
12:00+27e33535 0.0 1010503
15:00+29ese565320 0.0 1008828
18:00+27se58612 0.0 1006243
21:00+22ne018186 0.2 100715
1 august, sun
sun100:00+18wnw3109678 3.3 1012380
03:00+16w22940 3.3 101123
06:00+16ssw11935 0.0 101111
09:00+20se23850 0.0 1011270
12:00+25e44678 0.0 1010570
15:00+28e55604 0.0 1008552
18:00+27ese61066100 0.0 1005438
21:00+17sse379291 6.8 1008185
2 august, mon
mon200:00+19wsw2285100 0.0 100821
03:00+17nw22898 0.3 100734
06:00+16ssw1185100 0.0 100715
09:00+18nnw569089 0.0 1009357
12:00+17nnw699185 0.5 1011581
15:00+15nw6109083 1.5 1014601
18:00+16nw478447 0.3 1014631
21:00+15nw248624 0.3 1015169